Date String (YYYY-MM-DD hh:mm:ss) UTC,Instrument flags,absolute air pressure of the measurement (hPa),sample flow rate (lpm),inlet stack bypass flow (lpm),air temperature of the measurement (°C),ambient temperature measured by the external sensor (°C),aerosol sample conditioner tube jacket temperature (°C),OPC LED temperature (°C),internal box temperature (°C),relative humidity of the measurement (%),span deviation,mass concentration of particles derived from Lorenz-Mie calculation of OPC scattering (μg/m³),mass concentration of particles derived from Lorenz-Mie calculation of OPC scattering (μg/m³),mass concentration of particles derived from Lorenz-Mie calculation of OPC scattering (μg/m³)
DateTimeUTC,F1_M11,P_M11,Q1_M11,Q2_M11,T1_M11,T2_M11,T3_M11,T4_M11,T5_M11,U1_M11,ZSPAN_M11,X0_M11,X2_M11,X1_M11
2023-09-29 19:00:00,SystemResetWarning,0828.8,5.00,000.00,028.0,025.4,000.0,036.5,029.7,25.1,0000.1,0024.24,0007.67,0005.62
2023-09-29 19:01:00,SystemResetWarning,0828.7,5.00,000.00,028.0,025.8,000.0,036.5,029.7,25.5,0001.0,0023.85,0007.63,0005.60
2023-09-29 19:02:00,SystemResetWarning,0828.7,5.00,000.00,028.0,026.2,000.0,036.5,029.8,24.7,0001.3,0022.72,0007.62,0005.60
2023-09-29 19:03:00,SystemResetWarning,0828.6,5.00,000.00,028.1,026.5,000.0,036.5,029.9,24.2,0001.3,0021.26,0007.62,0005.60
2023-09-29 19:04:00,SystemResetWarning,0828.6,5.00,000.00,028.1,026.7,000.0,036.5,030.0,24.3,0001.7,0021.19,0007.63,0005.58
2023-09-29 19:05:00,SystemResetWarning,0828.7,5.01,000.00,028.2,027.0,000.0,036.6,030.0,24.4,0001.7,0021.52,0007.69,0005.58
2023-09-29 19:06:00,SystemResetWarning,0828.7,4.99,000.00,028.2,027.1,000.0,036.6,030.1,24.8,0002.2,0021.54,0007.74,0005.59
2023-09-29 19:07:00,SystemResetWarning,0828.7,4.99,000.00,028.2,026.0,000.0,036.5,030.1,25.4,0002.3,0021.50,0007.74,0005.59
2023-09-29 19:08:00,SystemResetWarning,0828.6,5.01,000.00,028.2,024.5,000.0,036.5,029.8,25.1,0001.9,0022.34,0007.87,0005.58
2023-09-29 19:09:00,SystemResetWarning,0828.6,5.01,000.00,028.1,024.3,000.0,036.4,029.7,25.3,0001.7,0022.29,0007.87,0005.56
2023-09-29 19:10:00,SystemResetWarning,0828.6,5.01,000.00,028.0,024.6,000.0,036.4,029.6,25.5,0001.8,0021.89,0007.88,0005.54
2023-09-29 19:11:00,SystemResetWarning,0828.6,5.00,000.00,028.0,025.0,000.0,036.5,029.6,25.6,0001.9,0022.14,0007.97,0005.51
2023-09-29 19:12:00,SystemResetWarning,0828.6,5.00,000.00,028.0,025.5,000.0,036.5,029.7,25.6,0001.9,0022.38,0008.04,0005.51
2023-09-29 19:13:00,SystemResetWarning,0828.6,5.00,000.00,028.0,025.9,000.0,036.5,029.7,25.9,0002.2,0023.20,0008.00,0005.50
2023-09-29 19:14:00,SystemResetWarning,0828.6,5.00,000.00,028.0,026.2,000.0,036.5,029.8,25.5,0002.3,0023.34,0007.95,0005.48
2023-09-29 19:15:00,SystemResetWarning,0828.6,5.00,000.00,028.1,026.5,000.0,036.5,029.9,25.0,0002.4,0024.51,0007.98,0005.49
2023-09-29 19:16:00,SystemResetWarning,0828.6,5.00,000.00,028.1,026.8,000.0,036.5,030.0,24.7,0002.6,0025.04,0007.90,0005.48
2023-09-29 19:17:00,SystemResetWarning,0828.6,5.00,000.00,028.2,027.0,000.0,036.6,030.1,24.7,0002.3,0027.19,0007.80,0005.48
2023-09-29 19:18:00,SystemResetWarning,0828.6,5.00,000.00,028.2,026.9,000.0,036.6,030.1,24.7,0002.2,0027.73,0007.73,0005.47
2023-09-29 19:19:00,SystemResetWarning,0828.6,4.98,000.00,028.2,025.5,000.0,036.5,030.0,24.8,0002.2,0026.87,0007.62,0005.45
2023-09-29 19:20:00,SystemResetWarning,0828.6,5.03,000.00,028.1,024.3,000.0,036.5,029.8,24.4,0002.0,0026.66,0007.58,0005.44
2023-09-29 19:21:00,SystemResetWarning,0828.5,5.00,000.00,028.1,024.4,000.0,036.4,029.7,24.6,0001.7,0025.98,0007.51,0005.44
2023-09-29 19:22:00,SystemResetWarning,0828.5,5.00,000.00,028.0,024.7,000.0,036.4,029.6,24.7,0001.4,0025.65,0007.43,0005.45
2023-09-29 19:23:00,SystemResetWarning,0828.4,5.01,000.00,028.0,025.2,000.0,036.5,029.6,24.4,0001.5,0025.56,0007.36,0005.46
2023-09-29 19:24:00,SystemResetWarning,0828.4,5.00,000.00,028.0,025.6,000.0,036.5,029.7,23.6,0001.5,0025.14,0007.35,0005.47
2023-09-29 19:25:00,SystemResetWarning,0828.4,4.99,000.00,028.0,026.0,000.0,036.5,029.8,23.7,0001.4,0025.59,0007.45,0005.50
2023-09-29 19:26:00,SystemResetWarning,0828.3,5.00,000.00,028.0,026.3,000.0,036.5,029.8,23.6,0000.8,0025.09,0007.41,0005.51
2023-09-29 19:27:00,SystemResetWarning,0828.4,5.00,000.00,028.1,026.6,000.0,036.5,029.9,23.4,-000.2,0023.81,0007.42,0005.52
2023-09-29 19:28:00,SystemResetWarning,0828.3,5.00,000.00,028.1,026.8,000.0,036.5,030.0,22.8,0000.3,0021.65,0007.42,0005.52
2023-09-29 19:29:00,SystemResetWarning,0828.3,4.99,000.00,028.2,027.1,000.0,036.5,030.1,22.7,-000.0,0021.88,0007.49,0005.52
2023-09-29 19:30:00,SystemResetWarning,0828.3,4.99,000.00,028.2,026.7,000.0,036.5,030.1,22.2,0000.7,0023.13,0007.50,0005.53
2023-09-29 19:31:00,SystemResetWarning,0828.3,5.00,000.00,028.2,025.0,000.0,036.5,029.9,22.3,0002.2,0023.10,0007.42,0005.55
2023-09-29 19:32:00,SystemResetWarning,0828.3,5.00,000.00,028.1,024.2,000.0,036.4,029.7,22.5,0002.6,0023.00,0007.49,0005.57
2023-09-29 19:33:00,SystemResetWarning,0828.3,5.02,000.00,028.0,024.4,000.0,036.4,029.7,22.4,0002.0,0023.28,0007.52,0005.57
2023-09-29 19:34:00,SystemResetWarning,0828.2,5.01,000.00,028.0,024.8,000.0,036.4,029.6,22.4,0001.4,0022.95,0007.52,0005.57
2023-09-29 19:35:00,SystemResetWarning,0828.3,5.00,000.00,027.9,025.2,000.0,036.4,029.6,22.6,0000.7,0023.71,0007.53,0005.57
2023-09-29 19:36:00,SystemResetWarning,0828.3,5.00,000.00,028.0,025.6,000.0,036.5,029.7,22.5,0000.4,0023.48,0007.49,0005.57
2023-09-29 19:37:00,SystemResetWarning,0828.3,5.00,000.00,028.0,026.0,000.0,036.5,029.8,21.8,0000.3,0022.36,0007.43,0005.56
2023-09-29 19:38:00,SystemResetWarning,0828.3,5.01,000.00,028.0,026.4,000.0,036.5,029.9,21.2,0000.0,0022.14,0007.38,0005.56
2023-09-29 19:39:00,SystemResetWarning,0828.3,5.00,000.00,028.1,026.7,000.0,036.5,029.9,22.1,0000.0,0022.00,0007.36,0005.57
2023-09-29 19:40:00,SystemResetWarning,0828.3,4.99,000.00,028.1,026.9,000.0,036.5,030.0,21.7,0001.6,0021.43,0007.36,0005.57
2023-09-29 19:41:00,SystemResetWarning,0828.3,5.00,000.00,028.2,027.1,000.0,036.5,030.1,20.9,0002.4,0020.11,0007.39,0005.58
2023-09-29 19:42:00,SystemResetWarning,0828.3,5.00,000.00,028.2,027.0,000.0,036.6,030.1,21.0,0000.5,0019.32,0007.43,0005.57
2023-09-29 19:43:00,SystemResetWarning,0828.3,4.99,000.00,028.2,025.5,000.0,036.5,030.0,21.3,0001.1,0019.83,0007.40,0005.56
2023-09-29 19:44:00,SystemResetWarning,0828.2,5.00,000.00,028.1,024.3,000.0,036.4,029.8,21.5,0002.5,0019.72,0007.43,0005.58
2023-09-29 19:45:00,SystemResetWarning,0828.2,5.01,000.00,028.1,024.4,000.0,036.4,029.7,20.9,0003.9,0019.61,0007.50,0005.60
2023-09-29 19:46:00,SystemResetWarning,0828.2,5.00,000.00,028.0,024.8,000.0,036.4,029.6,19.9,0000.2,0020.14,0007.58,0005.62
2023-09-29 19:47:00,SystemResetWarning,0828.2,5.01,000.00,028.0,025.2,000.0,036.4,029.6,20.0,0004.4,0020.37,0007.60,0005.64
2023-09-29 19:48:00,SystemResetWarning,0828.2,5.00,000.00,028.0,025.6,000.0,036.5,029.7,19.8,0005.2,0020.61,0007.70,0005.65
2023-09-29 19:49:00,SystemResetWarning,0828.2,5.00,000.00,028.0,026.0,000.0,036.5,029.8,19.7,0004.9,0021.39,0007.80,0005.67
2023-09-29 19:50:00,SystemResetWarning,0828.2,4.99,000.00,028.0,026.3,000.0,036.5,029.8,19.8,0004.5,0022.22,0007.81,0005.67
2023-09-29 19:51:00,SystemResetWarning,0828.1,4.99,000.00,028.1,026.6,000.0,036.5,029.9,19.4,0004.2,0024.31,0007.91,0005.69
2023-09-29 19:52:00,SystemResetWarning,0828.1,5.00,000.00,028.1,026.9,000.0,036.5,030.0,19.7,0002.7,0024.52,0007.87,0005.70
2023-09-29 19:53:00,SystemResetWarning,0828.1,5.00,000.00,028.2,027.1,000.0,036.6,030.1,19.3,0002.2,0024.59,0007.92,0005.72
2023-09-29 19:54:00,SystemResetWarning,0828.1,4.99,000.00,028.2,026.6,000.0,036.6,030.1,19.1,0003.7,0025.11,0007.95,0005.74
2023-09-29 19:55:00,SystemResetWarning,0828.0,4.99,000.00,028.2,024.9,000.0,036.5,029.9,19.0,0003.8,0025.98,0007.95,0005.75
2023-09-29 19:56:00,SystemResetWarning,0828.1,5.00,000.00,028.1,024.2,000.0,036.4,029.8,19.0,0003.6,0028.05,0007.96,0005.75
2023-09-29 19:57:00,SystemResetWarning,0828.1,5.02,000.00,028.1,024.4,000.0,036.4,029.6,19.0,0002.6,0028.79,0007.91,0005.74
2023-09-29 19:58:00,SystemResetWarning,0828.1,5.00,000.00,028.0,024.8,000.0,036.4,029.6,18.9,0002.4,0027.72,0007.94,0005.72
2023-09-29 19:59:00,SystemResetWarning,0828.1,5.00,000.00,028.0,025.3,000.0,036.4,029.6,18.8,0002.7,0027.72,0007.90,0005.71
